START_TIME,STEP,MOV.,AL01,t_acc.,AL02,t_acc.,E37,t_acc.,H21,t_acc.
1979-08-06 21:00:32.790 ,0,0,0.,24.0,0.,24.0,0.,24.0,0.,24.0
1979-08-06 21:00:56.790 ,0,1,1.,24.0,0.,24.0,3.,24.0,0.,24.0
1979-08-06 21:01:20.790 ,0,0,0.,24.0,0.,24.0,1.,24.0,0.,24.0
1979-08-06 21:01:44.790 ,1,1,0.,24.0,0.,24.0,0.,24.0,0.,24.0
1979-08-06 21:02:08.790 ,1,0,0.,24.0,0.,24.0,0.,24.0,0.,24.0
1979-08-06 21:02:32.790 ,2,1,0.,24.0,0.,24.0,0.,24.0,0.,24.0
1979-08-06 21:02:56.790 ,2,0,0.,24.0,0.,24.0,1.,24.0,0.,24.0
1979-08-06 21:03:20.790 ,3,1,0.,24.0,0.,24.0,0.,24.0,0.,24.0
1979-08-06 21:03:44.790 ,3,0,0.,24.0,0.,24.0,0.,24.0,0.,24.0
1979-08-06 21:04:08.790 ,4,1,1.,24.0,0.,24.0,1.,24.0,0.,24.0
1979-08-06 21:04:32.790 ,4,0,0.,24.0,0.,24.0,1.,24.0,0.,24.0
1979-08-06 21:04:56.790 ,5,1,0.,24.0,0.,24.0,2.,24.0,0.,24.0
1979-08-06 21:05:20.790 ,5,0,0.,24.0,0.,24.0,0.,24.0,0.,24.0
1979-08-06 21:05:44.790 ,6,1,0.,24.0,0.,24.0,2.,24.0,0.,24.0
1979-08-06 21:06:08.790 ,6,0,0.,24.0,0.,24.0,1.,24.0,0.,24.0
1979-08-06 21:06:32.790 ,7,0,7.,24.0,0.,24.0,1.,24.0,0.,24.0
1979-08-06 21:06:56.790 ,7,0,33.,24.0,0.,24.0,0.,24.0,0.,24.0
1979-08-06 21:07:20.790 ,5,1,12.,24.0,0.,24.0,2.,24.0,0.,24.0
1979-08-06 21:07:44.790 ,1,1,0.,24.0,0.,24.0,0.,24.0,0.,24.0
1979-08-06 21:08:08.790 ,2,1,1.,24.0,0.,24.0,2.,24.0,0.,24.0
1979-08-06 21:08:32.790 ,6,1,0.,24.0,0.,24.0,0.,24.0,0.,24.0
1979-08-06 21:08:56.790 ,5,1,18.,24.0,0.,24.0,0.,24.0,0.,24.0
1979-08-06 21:09:20.790 ,1,1,0.,24.0,0.,24.0,1.,24.0,0.,24.0
1979-08-06 21:09:44.790 ,2,1,0.,24.0,0.,24.0,0.,24.0,0.,24.0
1979-08-06 21:10:08.790 ,6,1,0.,24.0,1.,24.0,1.,24.0,0.,24.0
1979-08-06 21:10:32.790 ,5,1,24.,24.0,1.,24.0,1.,24.0,0.,24.0
1979-08-06 21:10:56.790 ,1,1,0.,24.0,0.,24.0,1.,24.0,0.,24.0
1979-08-06 21:11:20.790 ,2,1,0.,24.0,1.,24.0,0.,24.0,0.,24.0
1979-08-06 21:11:44.790 ,6,1,1.,24.0,0.,24.0,0.,24.0,0.,24.0
1979-08-06 21:12:08.790 ,5,1,15.,24.0,0.,24.0,0.,24.0,0.,24.0
1979-08-06 21:12:32.790 ,1,1,0.,24.0,0.,24.0,0.,24.0,0.,24.0
1979-08-06 21:12:56.790 ,2,1,1.,24.0,0.,24.0,2.,24.0,0.,24.0
1979-08-06 21:13:20.790 ,6,1,0.,24.0,0.,24.0,0.,24.0,0.,24.0
1979-08-06 21:13:44.790 ,5,1,16.,24.0,0.,24.0,3.,24.0,0.,24.0
1979-08-06 21:14:08.790 ,1,1,0.,24.0,0.,24.0,1.,24.0,0.,24.0
1979-08-06 21:14:32.790 ,2,1,0.,24.0,0.,24.0,0.,24.0,0.,24.0
1979-08-06 21:14:56.790 ,6,1,0.,24.0,0.,24.0,0.,24.0,0.,24.0
1979-08-06 21:15:20.790 ,5,1,22.,24.0,0.,24.0,1.,24.0,0.,24.0
1979-08-06 21:15:44.790 ,1,1,0.,24.0,0.,24.0,0.,24.0,0.,24.0
1979-08-06 21:16:08.790 ,2,1,0.,24.0,0.,24.0,1.,24.0,0.,24.0
1979-08-06 21:16:32.790 ,6,1,0.,24.0,0.,24.0,1.,24.0,0.,24.0
1979-08-06 21:16:56.790 ,5,1,14.,24.0,0.,24.0,0.,24.0,0.,24.0
1979-08-06 21:17:20.790 ,1,1,0.,24.0,0.,24.0,1.,24.0,0.,24.0
1979-08-06 21:17:44.790 ,0,0,1.,24.0,0.,24.0,0.,24.0,0.,24.0
1979-08-06 21:18:08.790 ,0,0,0.,24.0,0.,24.0,1.,24.0,0.,24.0
1979-08-06 21:18:32.790 ,5,1,18.,24.0,0.,24.0,0.,24.0,0.,24.0
1979-08-06 21:18:56.790 ,5,0,0.,24.0,0.,24.0,0.,24.0,0.,24.0
1979-08-06 21:19:20.790 ,4,1,0.,24.0,0.,24.0,0.,24.0,0.,24.0
1979-08-06 21:19:44.790 ,4,0,0.,24.0,0.,24.0,0.,24.0,0.,24.0
1979-08-06 21:20:08.790 ,3,1,0.,24.0,0.,24.0,1.,24.0,0.,24.0
1979-08-06 21:20:32.790 ,3,0,0.,24.0,0.,24.0,0.,24.0,0.,24.0
1979-08-06 21:20:56.790 ,2,1,0.,24.0,0.,24.0,0.,24.0,0.,24.0
1979-08-06 21:21:20.790 ,2,0,0.,24.0,0.,24.0,0.,24.0,0.,24.0
1979-08-06 21:21:44.790 ,1,1,0.,24.0,0.,24.0,0.,24.0,0.,24.0
1979-08-06 21:22:08.790 ,1,0,1.,24.0,0.,24.0,0.,24.0,0.,24.0
1979-08-06 21:22:32.790 ,0,1,0.,24.0,0.,24.0,0.,24.0,0.,24.0
1979-08-06 21:22:56.790 ,0,0,0.,24.0,0.,24.0,0.,24.0,0.,24.0
1979-08-06 21:23:20.790 ,0,1,0.,24.0,0.,24.0,1.,24.0,0.,24.0
1979-08-06 21:23:44.790 ,0,0,0.,24.0,0.,24.0,0.,24.0,0.,24.0
1979-08-06 21:24:08.790 ,1,1,0.,24.0,1.,24.0,0.,24.0,0.,24.0
1979-08-06 21:24:32.790 ,1,0,0.,24.0,0.,24.0,0.,24.0,0.,24.0
1979-08-06 21:24:56.790 ,2,1,0.,24.0,0.,24.0,1.,24.0,0.,24.0
1979-08-06 21:25:20.790 ,2,0,0.,24.0,0.,24.0,0.,24.0,0.,24.0
1979-08-06 21:25:44.790 ,3,1,0.,24.0,0.,24.0,1.,24.0,0.,24.0
1979-08-06 21:26:08.790 ,3,0,0.,24.0,0.,24.0,0.,24.0,0.,24.0
1979-08-06 21:26:32.790 ,4,1,0.,24.0,0.,24.0,0.,24.0,0.,24.0
1979-08-06 21:26:56.790 ,4,0,0.,24.0,0.,24.0,0.,24.0,0.,24.0
1979-08-06 21:27:20.790 ,5,1,0.,24.0,0.,24.0,0.,24.0,0.,24.0
1979-08-06 21:27:44.790 ,5,0,1.,24.0,0.,24.0,0.,24.0,0.,24.0
1979-08-06 21:28:08.790 ,6,1,0.,24.0,1.,24.0,0.,24.0,0.,24.0
1979-08-06 21:28:32.790 ,6,0,0.,24.0,0.,24.0,0.,24.0,0.,24.0
1979-08-06 21:28:56.790 ,7,1,2.,24.0,0.,24.0,0.,24.0,0.,24.0
1979-08-06 21:29:20.790 ,7,0,28.,24.0,0.,24.0,0.,24.0,0.,24.0
1979-08-06 21:29:44.790 ,7,1,31.,24.0,0.,24.0,3.,24.0,0.,24.0
1979-08-06 21:30:08.790 ,7,0,38.,24.0,0.,24.0,0.,24.0,0.,24.0
1979-08-06 21:30:32.790 ,6,1,26.,24.0,0.,24.0,1.,24.0,0.,24.0
1979-08-06 21:30:56.790 ,6,0,0.,24.0,0.,24.0,1.,24.0,0.,24.0
1979-08-06 21:31:20.790 ,5,1,0.,24.0,0.,24.0,0.,24.0,0.,24.0
1979-08-06 21:31:44.790 ,5,0,0.,24.0,0.,24.0,0.,24.0,0.,24.0
1979-08-06 21:32:08.790 ,4,1,0.,24.0,0.,24.0,0.,24.0,0.,24.0
1979-08-06 21:32:32.790 ,4,0,0.,24.0,0.,24.0,0.,24.0,0.,24.0
1979-08-06 21:32:56.790 ,3,1,0.,24.0,0.,24.0,1.,24.0,0.,24.0
1979-08-06 21:33:20.790 ,3,0,0.,24.0,0.,24.0,0.,24.0,0.,24.0
1979-08-06 21:33:44.790 ,2,1,0.,24.0,0.,24.0,2.,24.0,0.,24.0
1979-08-06 21:34:08.790 ,2,0,0.,24.0,1.,24.0,0.,24.0,0.,24.0
1979-08-06 21:34:32.790 ,1,1,0.,24.0,0.,24.0,0.,24.0,0.,24.0
1979-08-06 21:34:56.790 ,1,0,0.,24.0,0.,24.0,0.,24.0,0.,24.0
1979-08-06 21:35:20.790 ,0,1,0.,24.0,0.,24.0,0.,24.0,0.,24.0
1979-08-06 21:35:44.790 ,0,0,0.,24.0,0.,24.0,0.,24.0,0.,24.0
1979-08-06 21:36:08.790 ,0,1,0.,24.0,0.,24.0,0.,24.0,0.,24.0
1979-08-06 21:36:32.790 ,0,0,0.,24.0,0.,24.0,1.,24.0,0.,24.0
1979-08-06 21:36:56.790 ,1,1,0.,24.0,0.,24.0,0.,24.0,0.,24.0
1979-08-06 21:37:20.790 ,1,0,0.,24.0,0.,24.0,0.,24.0,0.,24.0
1979-08-06 21:37:44.790 ,2,1,0.,24.0,0.,24.0,0.,24.0,0.,24.0
1979-08-06 21:38:08.790 ,2,0,1.,24.0,0.,24.0,0.,24.0,0.,24.0
1979-08-06 21:38:32.790 ,3,1,0.,24.0,0.,24.0,0.,24.0,0.,24.0
1979-08-06 21:38:56.790 ,3,0,1.,24.0,0.,24.0,1.,24.0,0.,24.0
1979-08-06 21:39:20.790 ,4,1,0.,24.0,0.,24.0,0.,24.0,0.,24.0
1979-08-06 21:39:44.790 ,4,0,0.,24.0,0.,24.0,1.,24.0,0.,24.0
1979-08-06 21:40:08.790 ,5,1,0.,24.0,0.,24.0,0.,24.0,0.,24.0
1979-08-06 21:40:32.790 ,5,0,1.,24.0,0.,24.0,2.,24.0,0.,24.0
1979-08-06 21:40:56.790 ,6,1,0.,24.0,0.,24.0,0.,24.0,0.,24.0
1979-08-06 21:41:20.790 ,6,0,0.,24.0,0.,24.0,0.,24.0,0.,24.0
1979-08-06 21:41:44.790 ,7,1,6.,24.0,0.,24.0,0.,24.0,0.,24.0
1979-08-06 21:42:08.790 ,7,0,38.,24.0,0.,24.0,0.,24.0,0.,24.0
1979-08-06 21:42:32.790 ,7,1,29.,24.0,0.,24.0,1.,24.0,0.,24.0
1979-08-06 21:42:56.790 ,7,0,30.,24.0,0.,24.0,0.,24.0,0.,24.0
1979-08-06 21:43:20.790 ,6,1,20.,24.0,0.,24.0,1.,24.0,0.,24.0
1979-08-06 21:43:44.790 ,6,0,0.,24.0,0.,24.0,0.,24.0,0.,24.0
1979-08-06 21:44:08.790 ,5,1,0.,24.0,0.,24.0,0.,24.0,0.,24.0
1979-08-06 21:44:32.790 ,5,0,0.,24.0,0.,24.0,0.,24.0,0.,24.0
1979-08-06 21:44:56.790 ,4,1,0.,24.0,0.,24.0,0.,24.0,0.,24.0
1979-08-06 21:45:20.790 ,4,0,0.,24.0,1.,24.0,1.,24.0,0.,24.0
1979-08-06 21:45:44.790 ,3,1,0.,24.0,0.,24.0,0.,24.0,0.,24.0
1979-08-06 21:46:08.790 ,3,0,0.,24.0,0.,24.0,1.,24.0,0.,24.0
1979-08-06 21:46:32.790 ,2,1,0.,24.0,0.,24.0,0.,24.0,0.,24.0
1979-08-06 21:46:56.790 ,2,0,0.,24.0,0.,24.0,0.,24.0,0.,24.0
1979-08-06 21:47:20.790 ,1,1,0.,24.0,0.,24.0,2.,24.0,0.,24.0
1979-08-06 21:47:44.790 ,1,0,0.,24.0,0.,24.0,0.,24.0,0.,24.0
1979-08-06 21:48:08.790 ,0,1,0.,24.0,0.,24.0,0.,24.0,0.,24.0
1979-08-06 21:48:32.790 ,0,0,0.,24.0,0.,24.0,0.,24.0,0.,24.0
1979-08-06 21:48:56.790 ,0,1,0.,24.0,0.,24.0,0.,24.0,0.,24.0
1979-08-06 21:49:20.790 ,0,0,0.,24.0,0.,24.0,1.,24.0,0.,24.0
1979-08-06 21:49:44.790 ,1,1,0.,24.0,0.,24.0,0.,24.0,0.,24.0
1979-08-06 21:50:08.790 ,1,0,0.,24.0,0.,24.0,0.,24.0,0.,24.0
1979-08-06 21:50:32.790 ,2,1,0.,24.0,0.,24.0,0.,24.0,0.,24.0
1979-08-06 21:50:56.790 ,2,0,0.,24.0,0.,24.0,0.,24.0,0.,24.0
1979-08-06 21:51:20.790 ,3,1,0.,24.0,1.,24.0,0.,24.0,0.,24.0
1979-08-06 21:51:44.790 ,3,0,0.,24.0,0.,24.0,0.,24.0,0.,24.0
1979-08-06 21:52:08.790 ,4,1,0.,24.0,0.,24.0,0.,24.0,0.,24.0
1979-08-06 21:52:32.790 ,4,0,0.,24.0,0.,24.0,0.,24.0,0.,24.0
1979-08-06 21:52:56.790 ,5,1,0.,24.0,1.,24.0,0.,24.0,0.,24.0
1979-08-06 21:53:20.790 ,5,0,0.,24.0,1.,24.0,1.,24.0,0.,24.0
1979-08-06 21:53:44.790 ,6,1,1.,24.0,0.,24.0,0.,24.0,0.,24.0
1979-08-06 21:54:08.790 ,6,0,0.,24.0,0.,24.0,1.,24.0,0.,24.0
1979-08-06 21:54:32.790 ,7,0,7.,24.0,0.,24.0,1.,24.0,0.,24.0
1979-08-06 21:54:56.790 ,7,0,35.,24.0,0.,24.0,2.,24.0,0.,24.0
1979-08-06 21:55:20.790 ,5,1,16.,24.0,0.,24.0,1.,24.0,0.,24.0
1979-08-06 21:55:44.790 ,1,1,0.,24.0,0.,24.0,0.,24.0,0.,24.0
1979-08-06 21:56:08.790 ,2,1,0.,24.0,0.,24.0,0.,24.0,0.,24.0
1979-08-06 21:56:32.790 ,6,1,0.,24.0,0.,24.0,0.,24.0,0.,24.0
1979-08-06 21:56:56.790 ,5,1,18.,24.0,0.,24.0,0.,24.0,0.,24.0
1979-08-06 21:57:20.790 ,1,1,0.,24.0,0.,24.0,0.,24.0,0.,24.0
1979-08-06 21:57:44.790 ,2,1,0.,24.0,0.,24.0,1.,24.0,0.,24.0
1979-08-06 21:58:08.790 ,6,1,1.,24.0,0.,24.0,1.,24.0,0.,24.0
1979-08-06 21:58:32.790 ,5,1,18.,24.0,0.,24.0,1.,24.0,0.,24.0
1979-08-06 21:58:56.790 ,1,1,0.,24.0,0.,24.0,0.,24.0,0.,24.0
1979-08-06 21:59:20.790 ,2,1,0.,24.0,1.,24.0,0.,24.0,0.,24.0
1979-08-06 21:59:44.790 ,6,1,0.,24.0,0.,24.0,0.,24.0,0.,24.0
1979-08-06 22:00:08.790 ,5,1,10.,24.0,0.,24.0,1.,24.0,0.,24.0
1979-08-06 22:00:32.790 ,1,1,0.,24.0,0.,24.0,0.,24.0,0.,24.0
1979-08-06 22:00:56.790 ,2,1,0.,24.0,0.,24.0,2.,24.0,0.,24.0
1979-08-06 22:01:20.790 ,6,1,0.,24.0,0.,24.0,0.,24.0,0.,24.0
1979-08-06 22:01:44.790 ,5,1,7.,24.0,0.,24.0,1.,24.0,0.,24.0
1979-08-06 22:02:08.790 ,1,1,0.,24.0,0.,24.0,0.,24.0,0.,24.0
1979-08-06 22:02:32.790 ,2,1,0.,24.0,0.,24.0,0.,24.0,0.,24.0
1979-08-06 22:02:56.790 ,6,1,0.,24.0,0.,24.0,0.,24.0,0.,24.0
1979-08-06 22:03:20.790 ,5,1,13.,24.0,0.,24.0,0.,24.0,0.,24.0
1979-08-06 22:03:44.790 ,1,1,0.,24.0,0.,24.0,1.,24.0,0.,24.0
1979-08-06 22:04:08.790 ,2,1,0.,24.0,0.,24.0,0.,24.0,0.,24.0
1979-08-06 22:04:32.790 ,6,1,0.,24.0,0.,24.0,0.,24.0,0.,24.0
1979-08-06 22:04:56.790 ,5,1,24.,24.0,0.,24.0,0.,24.0,0.,24.0
1979-08-06 22:05:20.790 ,1,1,0.,24.0,0.,24.0,1.,24.0,0.,24.0
1979-08-06 22:05:44.790 ,0,0,2.,24.0,0.,24.0,2.,24.0,0.,24.0
1979-08-06 22:06:08.790 ,0,0,0.,24.0,0.,24.0,1.,24.0,0.,24.0
1979-08-06 22:06:32.790 ,5,1,12.,24.0,0.,24.0,1.,24.0,0.,24.0
1979-08-06 22:06:56.790 ,5,0,2.,24.0,0.,24.0,0.,24.0,0.,24.0
1979-08-06 22:07:20.790 ,4,1,0.,24.0,0.,24.0,0.,24.0,0.,24.0
1979-08-06 22:07:44.790 ,4,0,0.,24.0,0.,24.0,0.,24.0,0.,24.0
1979-08-06 22:08:08.790 ,3,1,0.,24.0,1.,24.0,0.,24.0,0.,24.0
1979-08-06 22:08:32.790 ,3,0,0.,24.0,0.,24.0,0.,24.0,0.,24.0
1979-08-06 22:08:56.790 ,2,1,0.,24.0,0.,24.0,1.,24.0,0.,24.0
1979-08-06 22:09:20.790 ,2,0,1.,24.0,0.,24.0,0.,24.0,0.,24.0
1979-08-06 22:09:44.790 ,1,1,0.,24.0,0.,24.0,0.,24.0,0.,24.0
1979-08-06 22:10:08.790 ,1,0,0.,24.0,0.,24.0,1.,24.0,0.,24.0
1979-08-06 22:10:32.790 ,0,1,0.,24.0,0.,24.0,0.,24.0,0.,24.0
1979-08-06 22:10:56.790 ,0,0,0.,24.0,0.,24.0,0.,24.0,0.,24.0
1979-08-06 22:11:20.790 ,0,1,0.,24.0,0.,24.0,0.,24.0,0.,24.0
1979-08-06 22:11:44.790 ,0,0,0.,24.0,0.,24.0,1.,24.0,0.,24.0
1979-08-06 22:12:08.790 ,1,1,0.,24.0,0.,24.0,0.,24.0,0.,24.0
1979-08-06 22:12:32.790 ,1,0,0.,24.0,0.,24.0,1.,24.0,0.,24.0
1979-08-06 22:12:56.790 ,2,1,0.,24.0,0.,24.0,0.,24.0,0.,24.0
1979-08-06 22:13:20.790 ,2,0,0.,24.0,0.,24.0,0.,24.0,0.,24.0
1979-08-06 22:13:44.790 ,3,1,0.,24.0,0.,24.0,0.,24.0,0.,24.0
1979-08-06 22:14:08.790 ,3,0,0.,24.0,0.,24.0,1.,24.0,0.,24.0
1979-08-06 22:14:32.790 ,4,1,0.,24.0,0.,24.0,0.,24.0,0.,24.0
1979-08-06 22:14:56.790 ,4,0,0.,24.0,0.,24.0,0.,24.0,0.,24.0
1979-08-06 22:15:20.790 ,5,1,0.,24.0,0.,24.0,1.,24.0,0.,24.0
1979-08-06 22:15:44.790 ,5,0,1.,24.0,0.,24.0,2.,24.0,0.,24.0
1979-08-06 22:16:08.790 ,6,1,1.,24.0,0.,24.0,0.,24.0,0.,24.0
1979-08-06 22:16:32.790 ,6,0,0.,24.0,0.,24.0,1.,24.0,0.,24.0
1979-08-06 22:16:56.790 ,7,1,14.,24.0,0.,24.0,1.,24.0,0.,24.0
1979-08-06 22:17:20.790 ,7,0,25.,24.0,0.,24.0,2.,24.0,0.,24.0
1979-08-06 22:17:44.790 ,7,1,37.,24.0,0.,24.0,0.,24.0,0.,24.0
1979-08-06 22:18:08.790 ,7,0,34.,24.0,0.,24.0,0.,24.0,0.,24.0
1979-08-06 22:18:32.790 ,6,1,26.,24.0,0.,24.0,0.,24.0,0.,24.0
1979-08-06 22:18:56.790 ,6,0,1.,24.0,0.,24.0,0.,24.0,0.,24.0
1979-08-06 22:19:20.790 ,5,1,1.,24.0,0.,24.0,1.,24.0,0.,24.0
1979-08-06 22:19:44.790 ,5,0,0.,24.0,0.,24.0,1.,24.0,0.,24.0
1979-08-06 22:20:08.790 ,4,1,0.,24.0,0.,24.0,1.,24.0,0.,24.0
1979-08-06 22:20:32.790 ,4,0,0.,24.0,0.,24.0,1.,24.0,0.,24.0
1979-08-06 22:20:56.790 ,3,1,0.,24.0,0.,24.0,0.,24.0,0.,24.0
1979-08-06 22:21:20.790 ,3,0,0.,24.0,0.,24.0,0.,24.0,0.,24.0
1979-08-06 22:21:44.790 ,2,1,0.,24.0,0.,24.0,0.,24.0,0.,24.0
1979-08-06 22:22:08.790 ,2,0,0.,24.0,0.,24.0,0.,24.0,0.,24.0
1979-08-06 22:22:32.790 ,1,1,0.,24.0,0.,24.0,1.,24.0,0.,24.0
1979-08-06 22:22:56.790 ,1,0,0.,24.0,0.,24.0,0.,24.0,0.,24.0
1979-08-06 22:23:20.790 ,0,1,0.,24.0,0.,24.0,0.,24.0,0.,24.0
1979-08-06 22:23:44.790 ,0,0,0.,24.0,0.,24.0,0.,24.0,0.,24.0
1979-08-06 22:24:08.790 ,0,1,0.,24.0,0.,24.0,0.,24.0,0.,24.0
1979-08-06 22:24:32.790 ,0,0,0.,24.0,0.,24.0,0.,24.0,0.,24.0
1979-08-06 22:24:56.790 ,1,1,0.,24.0,0.,24.0,0.,24.0,0.,24.0
1979-08-06 22:25:20.790 ,1,0,0.,24.0,0.,24.0,0.,24.0,0.,24.0
1979-08-06 22:25:44.790 ,2,1,0.,24.0,0.,24.0,0.,24.0,0.,24.0
1979-08-06 22:26:08.790 ,2,0,0.,24.0,0.,24.0,1.,24.0,0.,24.0
1979-08-06 22:26:32.790 ,3,1,1.,24.0,0.,24.0,0.,24.0,0.,24.0
1979-08-06 22:26:56.790 ,3,0,0.,24.0,0.,24.0,0.,24.0,0.,24.0
1979-08-06 22:27:20.790 ,4,1,0.,24.0,0.,24.0,0.,24.0,0.,24.0
1979-08-06 22:27:44.790 ,4,0,0.,24.0,0.,24.0,0.,24.0,0.,24.0
1979-08-06 22:28:08.790 ,5,1,0.,24.0,0.,24.0,0.,24.0,0.,24.0
1979-08-06 22:28:32.790 ,5,0,0.,24.0,0.,24.0,0.,24.0,0.,24.0
1979-08-06 22:28:56.790 ,6,1,0.,24.0,0.,24.0,0.,24.0,0.,24.0
1979-08-06 22:29:20.790 ,6,0,1.,24.0,0.,24.0,0.,24.0,0.,24.0
1979-08-06 22:29:44.790 ,7,1,13.,24.0,0.,24.0,0.,24.0,0.,24.0
1979-08-06 22:30:08.790 ,7,0,34.,24.0,0.,24.0,1.,24.0,0.,24.0
1979-08-06 22:30:32.790 ,7,1,30.,24.0,0.,24.0,0.,24.0,0.,24.0
1979-08-06 22:30:56.790 ,7,0,45.,24.0,0.,24.0,0.,24.0,0.,24.0
1979-08-06 22:31:20.790 ,6,1,21.,24.0,0.,24.0,0.,24.0,0.,24.0
1979-08-06 22:31:44.790 ,6,0,0.,24.0,0.,24.0,0.,24.0,0.,24.0
1979-08-06 22:32:08.790 ,5,1,1.,24.0,0.,24.0,0.,24.0,0.,24.0
1979-08-06 22:32:32.790 ,5,0,0.,24.0,0.,24.0,0.,24.0,0.,24.0
1979-08-06 22:32:56.790 ,4,1,0.,24.0,0.,24.0,0.,24.0,0.,24.0
1979-08-06 22:33:20.790 ,4,0,0.,24.0,0.,24.0,1.,24.0,0.,24.0
1979-08-06 22:33:44.790 ,3,1,0.,24.0,0.,24.0,0.,24.0,0.,24.0
1979-08-06 22:34:08.790 ,3,0,0.,24.0,0.,24.0,1.,24.0,0.,24.0
1979-08-06 22:34:32.790 ,2,1,0.,24.0,0.,24.0,0.,24.0,0.,24.0
1979-08-06 22:34:56.790 ,2,0,0.,24.0,0.,24.0,0.,24.0,0.,24.0
1979-08-06 22:35:20.790 ,1,1,0.,24.0,0.,24.0,0.,24.0,0.,24.0
1979-08-06 22:35:44.790 ,1,0,0.,24.0,0.,24.0,0.,24.0,0.,24.0
1979-08-06 22:36:08.790 ,0,1,0.,24.0,0.,24.0,1.,24.0,0.,24.0
1979-08-06 22:36:32.790 ,0,0,0.,24.0,0.,24.0,0.,24.0,0.,24.0
1979-08-06 22:36:56.790 ,0,1,0.,24.0,0.,24.0,0.,24.0,0.,24.0
1979-08-06 22:37:20.790 ,0,0,0.,24.0,0.,24.0,0.,24.0,0.,24.0
1979-08-06 22:37:44.790 ,1,1,1.,24.0,0.,24.0,0.,24.0,0.,24.0
1979-08-06 22:38:08.790 ,1,0,0.,24.0,0.,24.0,0.,24.0,0.,24.0
1979-08-06 22:38:32.790 ,2,1,0.,24.0,0.,24.0,1.,24.0,0.,24.0
1979-08-06 22:38:56.790 ,2,0,0.,24.0,0.,24.0,0.,24.0,0.,24.0
1979-08-06 22:39:20.790 ,3,1,0.,24.0,0.,24.0,0.,24.0,0.,24.0
1979-08-06 22:39:44.790 ,3,0,0.,24.0,0.,24.0,1.,24.0,0.,24.0
1979-08-06 22:40:08.790 ,4,1,0.,24.0,0.,24.0,2.,24.0,0.,24.0
1979-08-06 22:40:32.790 ,4,0,0.,24.0,0.,24.0,0.,24.0,0.,24.0
1979-08-06 22:40:56.790 ,5,1,0.,24.0,0.,24.0,1.,24.0,0.,24.0
1979-08-06 22:41:20.790 ,5,0,0.,24.0,0.,24.0,1.,24.0,0.,24.0
1979-08-06 22:41:44.790 ,6,1,0.,24.0,0.,24.0,0.,24.0,0.,24.0
1979-08-06 22:42:08.790 ,6,0,0.,24.0,0.,24.0,1.,24.0,0.,24.0
1979-08-06 22:42:32.790 ,7,0,7.,24.0,1.,24.0,0.,24.0,0.,24.0
1979-08-06 22:42:56.790 ,7,0,26.,24.0,0.,24.0,1.,24.0,0.,24.0
1979-08-06 22:43:20.790 ,5,1,15.,24.0,0.,24.0,1.,24.0,0.,24.0
1979-08-06 22:43:44.790 ,1,1,0.,24.0,0.,24.0,0.,24.0,0.,24.0
1979-08-06 22:44:08.790 ,2,1,1.,24.0,0.,24.0,0.,24.0,0.,24.0
1979-08-06 22:44:32.790 ,6,1,0.,24.0,0.,24.0,1.,24.0,0.,24.0
1979-08-06 22:44:56.790 ,5,1,21.,24.0,0.,24.0,0.,24.0,0.,24.0
1979-08-06 22:45:20.790 ,1,1,0.,24.0,0.,24.0,1.,24.0,0.,24.0
1979-08-06 22:45:44.790 ,2,1,0.,24.0,0.,24.0,0.,24.0,0.,24.0
1979-08-06 22:46:08.790 ,6,1,0.,24.0,0.,24.0,1.,24.0,0.,24.0
1979-08-06 22:46:32.790 ,5,1,20.,24.0,0.,24.0,1.,24.0,0.,24.0
1979-08-06 22:46:56.790 ,1,1,0.,24.0,0.,24.0,1.,24.0,0.,24.0
1979-08-06 22:47:20.790 ,2,1,0.,24.0,0.,24.0,0.,24.0,0.,24.0
1979-08-06 22:47:44.790 ,6,1,0.,24.0,0.,24.0,0.,24.0,0.,24.0
1979-08-06 22:48:08.790 ,5,1,13.,24.0,0.,24.0,0.,24.0,0.,24.0
1979-08-06 22:48:32.790 ,1,1,0.,24.0,0.,24.0,0.,24.0,0.,24.0
1979-08-06 22:48:56.790 ,2,1,0.,24.0,0.,24.0,1.,24.0,0.,24.0
1979-08-06 22:49:20.790 ,6,1,0.,24.0,1.,24.0,0.,24.0,0.,24.0
1979-08-06 22:49:44.790 ,5,1,21.,24.0,0.,24.0,0.,24.0,0.,24.0
1979-08-06 22:50:08.790 ,1,1,0.,24.0,0.,24.0,0.,24.0,0.,24.0
1979-08-06 22:50:32.790 ,2,1,0.,24.0,0.,24.0,0.,24.0,0.,24.0
1979-08-06 22:50:56.790 ,6,1,0.,24.0,0.,24.0,0.,24.0,0.,24.0
1979-08-06 22:51:20.790 ,5,1,15.,24.0,0.,24.0,0.,24.0,0.,24.0
1979-08-06 22:51:44.790 ,1,1,0.,24.0,0.,24.0,0.,24.0,0.,24.0
1979-08-06 22:52:08.790 ,2,1,0.,24.0,0.,24.0,0.,24.0,0.,24.0
1979-08-06 22:52:32.790 ,6,1,1.,24.0,0.,24.0,0.,24.0,0.,24.0
1979-08-06 22:52:56.790 ,5,1,12.,24.0,0.,24.0,0.,24.0,0.,24.0
1979-08-06 22:53:20.790 ,1,1,0.,24.0,0.,24.0,0.,24.0,0.,24.0
1979-08-06 22:53:44.790 ,0,0,0.,24.0,0.,24.0,0.,24.0,0.,24.0
1979-08-06 22:54:08.790 ,0,0,0.,24.0,0.,24.0,1.,24.0,0.,24.0
1979-08-06 22:54:32.790 ,5,1,13.,24.0,0.,24.0,0.,24.0,0.,24.0
1979-08-06 22:54:56.790 ,5,0,0.,24.0,0.,24.0,0.,24.0,0.,24.0
1979-08-06 22:55:20.790 ,4,1,0.,24.0,0.,24.0,0.,24.0,0.,24.0
1979-08-06 22:55:44.790 ,4,0,0.,24.0,0.,24.0,0.,24.0,0.,24.0
1979-08-06 22:56:08.790 ,3,1,0.,24.0,0.,24.0,0.,24.0,0.,24.0
1979-08-06 22:56:32.790 ,3,0,0.,24.0,0.,24.0,0.,24.0,0.,24.0
1979-08-06 22:56:56.790 ,2,1,0.,24.0,0.,24.0,0.,24.0,0.,24.0
1979-08-06 22:57:20.790 ,2,0,0.,24.0,0.,24.0,0.,24.0,0.,24.0
1979-08-06 22:57:44.790 ,1,1,0.,24.0,0.,24.0,0.,24.0,0.,24.0
1979-08-06 22:58:08.790 ,1,0,0.,24.0,0.,24.0,0.,24.0,0.,24.0
1979-08-06 22:58:32.790 ,0,1,0.,24.0,0.,24.0,0.,24.0,0.,24.0
1979-08-06 22:58:56.790 ,0,0,0.,24.0,0.,24.0,0.,24.0,0.,24.0
1979-08-06 22:59:20.790 ,0,1,0.,24.0,0.,24.0,1.,24.0,0.,24.0
1979-08-06 22:59:44.790 ,0,0,0.,24.0,0.,24.0,0.,24.0,0.,24.0
1979-08-06 23:00:08.790 ,1,1,0.,24.0,0.,24.0,0.,24.0,0.,24.0
1979-08-06 23:00:32.790 ,1,0,0.,24.0,0.,24.0,0.,24.0,0.,24.0
1979-08-06 23:00:32.830 ,1,0,0.,24.0,0.,24.0,0.,24.0,0.,24.0
1979-08-06 23:00:56.830 ,2,1,0.,24.0,0.,24.0,0.,24.0,0.,24.0
1979-08-06 23:01:20.830 ,2,0,1.,24.0,0.,24.0,0.,24.0,0.,24.0
1979-08-06 23:01:44.830 ,3,1,0.,24.0,0.,24.0,0.,24.0,0.,24.0
1979-08-06 23:02:08.830 ,3,0,0.,24.0,0.,24.0,1.,24.0,0.,24.0
1979-08-06 23:02:32.830 ,4,1,0.,24.0,0.,24.0,0.,24.0,0.,24.0
1979-08-06 23:02:56.830 ,4,0,1.,24.0,0.,24.0,0.,24.0,0.,24.0
1979-08-06 23:03:20.830 ,5,1,0.,24.0,0.,24.0,0.,24.0,0.,24.0
1979-08-06 23:03:44.830 ,5,0,0.,24.0,0.,24.0,0.,24.0,0.,24.0
1979-08-06 23:04:08.830 ,6,1,0.,24.0,0.,24.0,0.,24.0,0.,24.0
1979-08-06 23:04:32.830 ,6,0,0.,24.0,0.,24.0,0.,24.0,0.,24.0
1979-08-06 23:04:56.830 ,7,1,8.,24.0,0.,24.0,0.,24.0,0.,24.0
1979-08-06 23:05:20.830 ,7,0,31.,24.0,0.,24.0,0.,24.0,0.,24.0
1979-08-06 23:05:44.830 ,7,1,26.,24.0,0.,24.0,0.,24.0,0.,24.0
1979-08-06 23:06:08.830 ,7,0,25.,24.0,0.,24.0,0.,24.0,0.,24.0
1979-08-06 23:06:32.830 ,6,1,24.,24.0,1.,24.0,0.,24.0,0.,24.0
1979-08-06 23:06:56.830 ,6,0,0.,24.0,0.,24.0,0.,24.0,0.,24.0
1979-08-06 23:07:20.830 ,5,1,0.,24.0,0.,24.0,0.,24.0,0.,24.0
1979-08-06 23:07:44.830 ,5,0,0.,24.0,0.,24.0,0.,24.0,0.,24.0
1979-08-06 23:08:08.830 ,4,1,0.,24.0,0.,24.0,0.,24.0,0.,24.0
1979-08-06 23:08:32.830 ,4,0,0.,24.0,0.,24.0,1.,24.0,0.,24.0
1979-08-06 23:08:56.830 ,3,1,0.,24.0,0.,24.0,0.,24.0,0.,24.0
1979-08-06 23:09:20.830 ,3,0,0.,24.0,0.,24.0,0.,24.0,0.,24.0
1979-08-06 23:09:44.830 ,2,1,0.,24.0,0.,24.0,0.,24.0,0.,24.0
1979-08-06 23:10:08.830 ,2,0,0.,24.0,0.,24.0,0.,24.0,0.,24.0
1979-08-06 23:10:32.830 ,1,1,0.,24.0,0.,24.0,0.,24.0,0.,24.0
1979-08-06 23:10:56.830 ,0,0,0.,24.0,0.,24.0,0.,24.0,0.,24.0
1979-08-06 23:12:51.430 ,0,0,,0,,0,,0,,0
1979-08-06 23:12:56.830 ,1,1,0.,24.0,0.,24.0,0.,24.0,0.,24.0
1979-08-06 23:13:20.830 ,1,0,0.,24.0,0.,24.0,0.,24.0,0.,24.0
1979-08-06 23:13:44.830 ,2,1,0.,24.0,0.,24.0,1.,24.0,0.,24.0
1979-08-06 23:14:08.830 ,2,0,0.,24.0,0.,24.0,1.,24.0,0.,24.0
1979-08-06 23:14:32.830 ,3,1,0.,24.0,1.,24.0,0.,24.0,0.,24.0
1979-08-06 23:14:56.830 ,3,0,0.,24.0,0.,24.0,0.,24.0,0.,24.0
1979-08-06 23:15:20.830 ,4,1,0.,24.0,0.,24.0,0.,24.0,0.,24.0
1979-08-06 23:15:44.830 ,4,0,0.,24.0,0.,24.0,0.,24.0,0.,24.0
1979-08-06 23:16:08.830 ,5,1,1.,24.0,0.,24.0,0.,24.0,0.,24.0
1979-08-06 23:16:32.830 ,5,0,0.,24.0,0.,24.0,1.,24.0,0.,24.0
1979-08-06 23:16:56.830 ,6,1,0.,24.0,0.,24.0,0.,24.0,0.,24.0
1979-08-06 23:17:20.830 ,6,0,1.,24.0,0.,24.0,0.,24.0,0.,24.0
1979-08-06 23:17:44.830 ,7,1,11.,24.0,0.,24.0,0.,24.0,0.,24.0
1979-08-06 23:18:08.830 ,7,0,23.,24.0,0.,24.0,0.,24.0,0.,24.0
1979-08-06 23:20:08.830 ,0,0,1.,24.0,1.,24.0,0.,24.0,0.,24.0
1979-08-06 23:20:32.830 ,0,0,0.,24.0,0.,24.0,0.,24.0,0.,24.0
1979-08-06 23:20:56.830 ,4,1,1.,24.0,1.,24.0,0.,24.0,0.,24.0
1979-08-06 23:21:20.830 ,4,0,0.,24.0,0.,24.0,0.,24.0,0.,24.0
1979-08-06 23:21:44.830 ,3,1,0.,24.0,0.,24.0,0.,24.0,0.,24.0
1979-08-06 23:22:08.830 ,3,0,1.,24.0,0.,24.0,0.,24.0,0.,24.0
1979-08-06 23:22:32.830 ,2,1,0.,24.0,1.,24.0,0.,24.0,0.,24.0
1979-08-06 23:22:56.830 ,2,0,0.,24.0,0.,24.0,0.,24.0,0.,24.0
1979-08-06 23:23:20.830 ,1,1,0.,24.0,0.,24.0,1.,24.0,0.,24.0
1979-08-06 23:23:44.830 ,1,0,0.,24.0,0.,24.0,0.,24.0,0.,24.0
1979-08-06 23:24:08.830 ,0,1,0.,24.0,0.,24.0,0.,24.0,0.,24.0
1979-08-06 23:24:32.830 ,0,0,0.,24.0,0.,24.0,0.,24.0,0.,24.0
1979-08-06 23:24:56.830 ,0,1,0.,24.0,0.,24.0,2.,24.0,0.,24.0
1979-08-06 23:25:20.830 ,0,0,0.,24.0,0.,24.0,1.,24.0,0.,24.0
1979-08-06 23:25:44.830 ,1,1,0.,24.0,0.,24.0,0.,24.0,0.,24.0
1979-08-06 23:26:08.830 ,1,0,0.,24.0,0.,24.0,0.,24.0,0.,24.0
1979-08-06 23:26:32.830 ,2,1,0.,24.0,0.,24.0,0.,24.0,0.,24.0
1979-08-06 23:26:56.830 ,2,0,0.,24.0,0.,24.0,1.,24.0,0.,24.0
1979-08-06 23:27:20.830 ,3,1,0.,24.0,0.,24.0,0.,24.0,0.,24.0
1979-08-06 23:27:44.830 ,3,0,0.,24.0,0.,24.0,0.,24.0,0.,24.0
1979-08-06 23:28:08.830 ,4,1,0.,24.0,0.,24.0,0.,24.0,0.,24.0
1979-08-06 23:28:32.830 ,4,0,0.,24.0,0.,24.0,2.,24.0,0.,24.0
1979-08-06 23:28:56.830 ,5,1,0.,24.0,0.,24.0,0.,24.0,0.,24.0
1979-08-06 23:29:20.830 ,5,0,0.,24.0,0.,24.0,1.,24.0,0.,24.0
1979-08-06 23:29:44.830 ,6,1,0.,24.0,0.,24.0,0.,24.0,0.,24.0
1979-08-06 23:30:08.830 ,6,0,0.,24.0,0.,24.0,0.,24.0,0.,24.0
1979-08-06 23:30:32.830 ,7,0,11.,24.0,0.,24.0,0.,24.0,0.,24.0
1979-08-06 23:30:56.830 ,7,0,33.,24.0,0.,24.0,0.,24.0,0.,24.0
1979-08-06 23:31:20.830 ,5,1,12.,24.0,0.,24.0,0.,24.0,0.,24.0
1979-08-06 23:31:44.830 ,1,1,0.,24.0,0.,24.0,0.,24.0,0.,24.0
1979-08-06 23:32:08.830 ,2,1,0.,24.0,0.,24.0,1.,24.0,0.,24.0
1979-08-06 23:32:32.830 ,6,1,0.,24.0,0.,24.0,0.,24.0,0.,24.0
1979-08-06 23:32:56.830 ,5,1,15.,24.0,0.,24.0,0.,24.0,0.,24.0
1979-08-06 23:33:20.830 ,1,1,0.,24.0,0.,24.0,0.,24.0,0.,24.0
1979-08-06 23:33:44.830 ,2,1,0.,24.0,0.,24.0,0.,24.0,0.,24.0
1979-08-06 23:34:08.830 ,6,1,0.,24.0,0.,24.0,0.,24.0,0.,24.0
1979-08-06 23:34:32.830 ,5,1,16.,24.0,1.,24.0,0.,24.0,0.,24.0
1979-08-06 23:34:56.830 ,1,1,0.,24.0,0.,24.0,0.,24.0,0.,24.0
1979-08-06 23:35:20.830 ,2,1,0.,24.0,1.,24.0,0.,24.0,0.,24.0
1979-08-06 23:35:44.830 ,6,1,0.,24.0,0.,24.0,0.,24.0,0.,24.0
1979-08-06 23:36:08.830 ,5,1,12.,24.0,0.,24.0,1.,24.0,0.,24.0
1979-08-06 23:36:32.830 ,1,1,0.,24.0,0.,24.0,1.,24.0,0.,24.0